Stündliche Wetter Holuby

Heute, 25 Juni, Freitag

Zeit Temperatur Niederschläge Wind Luftdruck Luftfeuchtigkeit
00:00 +24°C° 0 mm 2 m/S 746 mmHg 81%
01:00 +24°C° 0 mm 2 m/S 746 mmHg 82%
02:00 +23°C° 0 mm 2 m/S 746 mmHg 83%
03:00 +23°C° 0 mm 2 m/S 746 mmHg 84%
04:00 +24°C° 0 mm 2 m/S 746 mmHg 84%
05:00 +24°C° 0 mm 2 m/S 746 mmHg 85%
06:00 +25°C° 0 mm 2 m/S 746 mmHg 79%
07:00 +27°C° 0 mm 3 m/S 746 mmHg 74%
08:00 +28°C° 0 mm 3 m/S 746 mmHg 68%
09:00 +29°C° 0 mm 3 m/S 746 mmHg 64%
10:00 +30°C° 0 mm 3 m/S 746 mmHg 60%
11:00 +33°C° 0 mm 3 m/S 746 mmHg 55%
12:00 +33°C° 0 mm 3 m/S 746 mmHg 53%
13:00 +34°C° 0 mm 2 m/S 746 mmHg 51%
14:00 +34°C° 0 mm 2 m/S 745 mmHg 49%
15:00 +34°C° 0 mm 2 m/S 745 mmHg 52%
16:00 +32°C° 0 mm 2 m/S 745 mmHg 56%
17:00 +32°C° 0 mm 2 m/S 745 mmHg 60%
18:00 +30°C° 0 mm 2 m/S 744 mmHg 65%
19:00 +28°C° 0 mm 3 m/S 744 mmHg 70%
20:00 +27°C° 0 mm 3 m/S 744 mmHg 76%
21:00 +26°C° 0.1 mm 3 m/S 744 mmHg 78%
22:00 +25°C° 0.1 mm 2 m/S 744 mmHg 80%
23:00 +25°C° 0.1 mm 1 m/S 744 mmHg 82%

Morgen, 26 Juni, Samstag

Zeit Temperatur Niederschläge Wind Luftdruck Luftfeuchtigkeit
00:00 +24°C° 0.1 mm 2 m/S 744 mmHg 83%
01:00 +24°C° 0.1 mm 2 m/S 744 mmHg 84%
02:00 +23°C° 0.1 mm 2 m/S 744 mmHg 85%
03:00 +24°C° 0.1 mm 2 m/S 744 mmHg 86%
04:00 +24°C° 0.1 mm 2 m/S 744 mmHg 86%
05:00 +24°C° 0.1 mm 2 m/S 744 mmHg 87%
06:00 +25°C° 0 mm 2 m/S 744 mmHg 82%
07:00 +27°C° 0 mm 2 m/S 744 mmHg 76%
08:00 +29°C° 0 mm 2 m/S 744 mmHg 71%
09:00 +30°C° 0 mm 2 m/S 744 mmHg 66%
10:00 +31°C° 0 mm 3 m/S 744 mmHg 61%
11:00 +33°C° 0 mm 3 m/S 744 mmHg 57%
12:00 +33°C° 0 mm 3 m/S 743 mmHg 55%
13:00 +34°C° 0 mm 3 m/S 743 mmHg 53%
14:00 +34°C° 0 mm 3 m/S 743 mmHg 51%
15:00 +33°C° 0.3 mm 3 m/S 743 mmHg 57%
16:00 +31°C° 0.3 mm 3 m/S 742 mmHg 63%
17:00 +30°C° 0.3 mm 3 m/S 742 mmHg 69%
18:00 +28°C° 3.2 mm 3 m/S 742 mmHg 74%
19:00 +26°C° 3.2 mm 3 m/S 742 mmHg 79%
20:00 +23°C° 3.2 mm 2 m/S 742 mmHg 85%
21:00 +23°C° 2.2 mm 2 m/S 742 mmHg 87%
22:00 +22°C° 2.2 mm 3 m/S 742 mmHg 89%
23:00 +21°C° 2.2 mm 3 m/S 742 mmHg 92%

übermorgen, 27 Juni, Sonntag

Zeit Temperatur Niederschläge Wind Luftdruck Luftfeuchtigkeit
00:00 +21°C° 2.7 mm 4 m/S 742 mmHg 92%
01:00 +20°C° 2.7 mm 4 m/S 742 mmHg 93%
02:00 +20°C° 2.7 mm 5 m/S 742 mmHg 94%
03:00 +20°C° 0.1 mm 5 m/S 742 mmHg 94%
04:00 +20°C° 0.1 mm 5 m/S 742 mmHg 93%
05:00 +21°C° 0.1 mm 5 m/S 742 mmHg 93%
06:00 +22°C° 0.1 mm 4 m/S 742 mmHg 89%
07:00 +25°C° 0.1 mm 3 m/S 742 mmHg 84%
08:00 +26°C° 0.1 mm 2 m/S 742 mmHg 80%
09:00 +27°C° 0.2 mm 3 m/S 742 mmHg 76%
10:00 +28°C° 0.2 mm 3 m/S 742 mmHg 73%
11:00 +29°C° 0.2 mm 3 m/S 742 mmHg 69%
12:00 +29°C° 1.4 mm 3 m/S 742 mmHg 70%
13:00 +29°C° 1.4 mm 3 m/S 742 mmHg 70%
14:00 +29°C° 1.4 mm 4 m/S 742 mmHg 71%
15:00 +28°C° 1.2 mm 4 m/S 742 mmHg 75%
16:00 +26°C° 1.2 mm 4 m/S 741 mmHg 80%
17:00 +25°C° 1.2 mm 4 m/S 741 mmHg 84%
18:00 +23°C° 0.1 mm 4 m/S 741 mmHg 87%
19:00 +22°C° 0.1 mm 4 m/S 741 mmHg 90%
20:00 +22°C° 0.1 mm 3 m/S 741 mmHg 93%
21:00 +21°C° 0.4 mm 3 m/S 741 mmHg 94%
22:00 +20°C° 0.4 mm 2 m/S 741 mmHg 95%
23:00 +20°C° 0.4 mm 2 m/S 741 mmHg 95%

28 Juni, Montag

Zeit Temperatur Niederschläge Wind Luftdruck Luftfeuchtigkeit
00:00 +20°C° 0.6 mm 3 m/S 741 mmHg 96%
01:00 +20°C° 0.6 mm 3 m/S 741 mmHg 96%
02:00 +20°C° 0.6 mm 4 m/S 741 mmHg 96%
03:00 +19°C° 0.3 mm 4 m/S 741 mmHg 96%
04:00 +19°C° 0.3 mm 4 m/S 741 mmHg 95%
05:00 +19°C° 0.3 mm 4 m/S 741 mmHg 94%
06:00 +19°C° 0.2 mm 4 m/S 741 mmHg 94%
07:00 +20°C° 0.2 mm 3 m/S 742 mmHg 93%
08:00 +20°C° 0.2 mm 3 m/S 742 mmHg 92%
09:00 +20°C° 0.4 mm 3 m/S 742 mmHg 92%
10:00 +21°C° 0.4 mm 3 m/S 742 mmHg 92%
11:00 +21°C° 0.4 mm 4 m/S 742 mmHg 92%
12:00 +21°C° 0.8 mm 3 m/S 742 mmHg 92%
13:00 +21°C° 0.8 mm 3 m/S 742 mmHg 91%
14:00 +21°C° 0.8 mm 3 m/S 742 mmHg 91%
15:00 +21°C° 1.9 mm 3 m/S 742 mmHg 93%
16:00 +20°C° 1.9 mm 4 m/S 742 mmHg 94%
17:00 +20°C° 1.9 mm 4 m/S 742 mmHg 96%
18:00 +19°C° 1.4 mm 4 m/S 742 mmHg 96%
19:00 +19°C° 1.4 mm 5 m/S 742 mmHg 96%
20:00 +19°C° 1.4 mm 5 m/S 742 mmHg 96%
21:00 +19°C° 0.4 mm 5 m/S 742 mmHg 96%
22:00 +18°C° 0.4 mm 4 m/S 742 mmHg 96%
23:00 +18°C° 0.4 mm 4 m/S 742 mmHg 95%

29 Juni, Dienstag

Zeit Temperatur Niederschläge Wind Luftdruck Luftfeuchtigkeit
00:00 +18°C° 1.4 mm 4 m/S 742 mmHg 95%
01:00 +18°C° 1.4 mm 4 m/S 742 mmHg 95%
02:00 +18°C° 1.4 mm 4 m/S 742 mmHg 95%
03:00 +17°C° 1.1 mm 4 m/S 742 mmHg 95%
04:00 +17°C° 1.1 mm 3 m/S 742 mmHg 95%
05:00 +17°C° 1.1 mm 3 m/S 742 mmHg 95%
06:00 +18°C° 0.3 mm 4 m/S 742 mmHg 93%
07:00 +18°C° 0.3 mm 4 m/S 742 mmHg 91%
08:00 +19°C° 0.3 mm 4 m/S 742 mmHg 89%
09:00 +20°C° 0.5 mm 5 m/S 742 mmHg 85%
10:00 +21°C° 0.5 mm 5 m/S 742 mmHg 80%
11:00 +22°C° 0.5 mm 6 m/S 742 mmHg 75%
12:00 +22°C° 0.5 mm 6 m/S 742 mmHg 73%
13:00 +23°C° 0.5 mm 5 m/S 742 mmHg 70%
14:00 +23°C° 0.5 mm 5 m/S 742 mmHg 68%
15:00 +23°C° 0.4 mm 5 m/S 742 mmHg 71%
16:00 +22°C° 0.4 mm 4 m/S 742 mmHg 75%
17:00 +22°C° 0.4 mm 4 m/S 742 mmHg 79%
18:00 +21°C° 0.3 mm 4 m/S 742 mmHg 82%
19:00 +19°C° 0.3 mm 3 m/S 742 mmHg 86%
20:00 +18°C° 0.3 mm 3 m/S 742 mmHg 89%
21:00 +18°C° 0.1 mm 3 m/S 742 mmHg 90%
22:00 +17°C° 0.1 mm 3 m/S 741 mmHg 91%
23:00 +17°C° 0.1 mm 3 m/S 741 mmHg 92%

30 Juni, Mittwoch

Zeit Temperatur Niederschläge Wind Luftdruck Luftfeuchtigkeit
00:00 +17°C° 0.2 mm 3 m/S 741 mmHg 92%
01:00 +17°C° 0.2 mm 3 m/S 741 mmHg 93%
02:00 +17°C° 0.2 mm 3 m/S 741 mmHg 94%
03:00 +17°C° 0.8 mm 3 m/S 741 mmHg 94%
04:00 +17°C° 0.8 mm 3 m/S 741 mmHg 94%
05:00 +16°C° 0.8 mm 3 m/S 740 mmHg 95%
06:00 +17°C° 0.4 mm 4 m/S 740 mmHg 94%
07:00 +17°C° 0.4 mm 4 m/S 740 mmHg 93%
08:00 +16°C° 0.4 mm 5 m/S 740 mmHg 92%
09:00 +17°C° 0.2 mm 5 m/S 740 mmHg 90%
10:00 +19°C° 0.2 mm 5 m/S 740 mmHg 88%
11:00 +20°C° 0.2 mm 5 m/S 740 mmHg 86%
12:00 +20°C° 0.2 mm 6 m/S 740 mmHg 83%
13:00 +21°C° 0.2 mm 6 m/S 740 mmHg 80%
14:00 +22°C° 0.2 mm 6 m/S 740 mmHg 77%
15:00 +22°C° 0.2 mm 6 m/S 740 mmHg 78%
16:00 +22°C° 0.2 mm 5 m/S 740 mmHg 79%
17:00 +22°C° 0.2 mm 5 m/S 740 mmHg 79%
18:00 +21°C° 0.1 mm 4 m/S 740 mmHg 82%
19:00 +20°C° 0.1 mm 4 m/S 740 mmHg 85%
20:00 +19°C° 0.1 mm 3 m/S 740 mmHg 87%
21:00 +19°C° 0 mm 3 m/S 740 mmHg 87%
22:00 +18°C° 0 mm 3 m/S 740 mmHg 88%
23:00 +18°C° 0 mm 3 m/S 740 mmHg 88%
Mehr zeigen

Wir brauchen deine Erlaubnis

Meteoprog und unser Service Anbieter werden persönliche Daten aufbewahren, so wie Cookies, Geräte Bezeichnung oder ähnliche Technologien von deinem Gerät und Prozess, so wie Persönliche Daten Inhalte und Werbungen, genauso wie social Media und den Verkehr zu analysieren.

  • Aufbewahrung und/oder Zugang zu deiner Geräte Informationen.

    Cookies, Geräte Bezeichnung oder andere Informationen, können aufbewahrt oder Zugang zu deinem Gerät erhalten, für den Grund, der oben angegeben wird.

  • Personalisierte Werbung und Inhalte, Messungen, Einblick in das Publikum und Produkt Entwicklung.

    Werbungen und Inhalte können personalisiert werden, basierend auf ein Profil. Mehr Daten können besser personalisierte Werbungen und Inhalte hinzufügen. Werbung und Inhalte können gezeigt und gemessen werden. Einblicke über das Publikum, welche die Werbung gesehen haben und den Inhalt, können abgeleitet werden. So wie Daten können genutzt werden, um es zu verbessern oder die Benutzer Erfahrung zu verbessern das System und die Software.

Wenn du “Ich stimme zu” klickst, erlaubst du uns, die Cookies zu benutzen die Geräte Bezeichnung, den Web oder ähnliche Technologien zu benutzen. Deine Settings, können in deinem Gerät bei deinem Browser geändert werden.

Für den bestimmten Zweck, berechtigten Interessen beruhen darauf, mehr als auf den Inhalt. Du kannst mehr darüber in unseren Privaten und Cookie Politik lesen.